TimeMST,TemperatureF,Dew PointF,Humidity,Sea Level PressureIn,VisibilityMPH,Wind Direction,Wind SpeedMPH,Gust SpeedMPH,PrecipitationIn,Events,Conditions,WindDirDegrees,DateUTC
12:21 AM,26.6,17.6,69,30.16,10.0,NW,13.8,-,0.00,,Overcast,310,2013-01-02 07:21:00
12:53 AM,28.0,16.0,61,30.25,10.0,WNW,18.4,-,0.00,,Overcast,300,2013-01-02 07:53:00
1:53 AM,27.0,15.1,61,30.25,10.0,NW,16.1,23.0,N/A,,Overcast,310,2013-01-02 08:53:00
2:53 AM,27.0,16.0,63,30.27,10.0,NW,18.4,-,N/A,,Overcast,320,2013-01-02 09:53:00
3:53 AM,28.9,15.1,56,30.27,10.0,WNW,10.4,-,N/A,,Overcast,290,2013-01-02 10:53:00
4:53 AM,26.1,15.1,63,30.29,10.0,NNW,13.8,-,N/A,,Overcast,340,2013-01-02 11:53:00
5:53 AM,21.9,12.9,68,30.30,10.0,NW,11.5,-,N/A,,Scattered Clouds,320,2013-01-02 12:53:00
6:53 AM,21.0,9.0,60,30.31,10.0,NNW,13.8,-,N/A,,Clear,330,2013-01-02 13:53:00
7:53 AM,19.9,9.0,62,30.32,10.0,NW,12.7,-,N/A,,Mostly Cloudy,320,2013-01-02 14:53:00
8:53 AM,19.9,8.1,60,30.31,10.0,West,8.1,-,N/A,,Overcast,270,2013-01-02 15:53:00
9:53 AM,23.0,8.1,53,30.31,10.0,WNW,9.2,-,N/A,,Scattered Clouds,290,2013-01-02 16:53:00
10:53 AM,28.9,10.9,47,30.30,10.0,NNW,13.8,-,N/A,,Clear,330,2013-01-02 17:53:00
11:53 AM,28.0,12.9,53,30.30,9.0,NW,28.8,34.5,N/A,,Clear,320,2013-01-02 18:53:00
12:53 PM,28.0,14.0,56,30.31,10.0,NW,26.5,-,N/A,,Clear,320,2013-01-02 19:53:00
1:53 PM,28.0,14.0,56,30.31,10.0,NNW,25.3,32.2,N/A,,Clear,330,2013-01-02 20:53:00
2:53 PM,28.0,12.9,53,30.32,10.0,NNW,17.3,26.5,N/A,,Clear,330,2013-01-02 21:53:00
3:53 PM,26.1,12.9,58,30.34,10.0,NW,16.1,-,N/A,,Clear,320,2013-01-02 22:53:00
4:53 PM,21.0,10.9,65,30.39,10.0,NNW,11.5,-,N/A,,Clear,330,2013-01-02 23:53:00
5:53 PM,17.1,9.0,71,30.43,10.0,NNW,11.5,-,N/A,,Clear,330,2013-01-03 00:53:00
6:53 PM,10.9,5.0,77,30.46,10.0,West,5.8,-,N/A,,Unknown,280,2013-01-03 01:53:00
7:53 PM,14.0,6.1,71,30.45,10.0,NW,6.9,-,N/A,,Clear,320,2013-01-03 02:53:00
8:53 PM,10.0,3.0,73,30.48,10.0,Calm,Calm,-,N/A,,Clear,0,2013-01-03 03:53:00
9:53 PM,12.9,3.0,65,30.45,10.0,SE,3.5,-,N/A,,Clear,130,2013-01-03 04:53:00
10:53 PM,12.0,1.0,61,30.44,10.0,Calm,Calm,-,N/A,,Clear,0,2013-01-03 05:53:00
11:53 PM,10.0,-0.0,64,30.46,10.0,Calm,Calm,-,N/A,,Clear,0,2013-01-03 06:53:00